Other Public Products
Issued by NWS Grand Forks, ND

Home | Current Version | Previous Version | Text Only | Print | Product List | Glossary On
Versions: 1 2 3 4 5 6 7 8 9 10 11 12 13 14 15 16 17 18 19 20 21 22 23 24 25 26 27 28 29 30 31 32 33 34 35 36 37 38 39 40 41 42 43 44 45 46 47 48 49 50
000
FPUS83 KFGF 110031
OPUFGF
PRAIRIE TO PINES WEATHER ROUNDUP
NATIONAL WEATHER SERVICE EASTERN NORTH DAKOTA/GRAND FORKS ND
600 PM CST WED FEB 10 2016

 **SATELLITE DATA USED TO AUGMENT SKY COVER AT AUTOMATED STATIONS**
 *****  WEATHER ACROSS EASTERN NORTH DAKOTA  *****

CITY           SKY/WX    TMP DP  RH WIND       PRES   REMARKS
GRAND FORKS    MOCLDY     9  -1  64 N7        30.27R WCI  -2
6HR MIN TEMP:   9; 6HR MAX TEMP:  10;

GRAND FORKS AF CLOUDY     7  -2  67 NE5       30.27R WCI  -2
GRAND CITY NWS NOT AVBL
BUXTON           N/A    N/A N/A N/A N8          N/A
DEVILS LAKE    FLURRIES   6   1  80 E10       30.23R WCI  -9
6HR MIN TEMP:   6; 6HR MAX TEMP:   8; 6HR PCP: TRACE;

FARGO          CLOUDY    12   0  58 N12       30.24R WCI  -2
6HR MIN TEMP:  11; 6HR MAX TEMP:  15;

WAHPETON ARPT  CLOUDY    14   1  57 N8        30.23R WCI   3
$$

 *****  WEATHER ACROSS CENTRAL AND WESTERN NORTH DAKOTA  *****

CITY           SKY/WX    TMP DP  RH WIND       PRES   REMARKS
JAMESTOWN      FLURRIES   9   4  80 E10       30.18R WCI  -5
6HR MIN TEMP:   9; 6HR MAX TEMP:  10; 6HR PCP: TRACE;

BISMARCK       CLOUDY    21  13  71 NE10      30.16R WCI  10
6HR MIN TEMP:  21; 6HR MAX TEMP:  26;

MINOT          CLOUDY    14   6  70 NE5       30.17R WCI   6
6HR MIN TEMP:  14; 6HR MAX TEMP:  18; 6HR PCP: TRACE;

MINOT AFB      CLOUDY    12   8  84 E3        30.17R
6HR MIN TEMP:  12; 6HR MAX TEMP:  15; 6HR PCP: TRACE;

GARRISON         N/A     15  11  83 NE7       30.15R WCI   5
6HR MIN TEMP:  15; 6HR MAX TEMP:  25;

WILLISTON      CLOUDY    28  24  85 N10       30.14R WCI  19
6HR MIN TEMP:  28; 6HR MAX TEMP:  32;

DICKINSON      CLOUDY    30  24  78 N12       30.08R WCI  20
6HR MIN TEMP:  30; 6HR MAX TEMP:  41;

HETTINGER      CLOUDY    34  27  75 N16       30.08R WCI  24
6HR MIN TEMP:  34; 6HR MAX TEMP:  48;

$$

 *****  OTHER OBSERVATIONS NORTHEAST NORTH DAKOTA  *****

CITY           SKY/WX    TMP DP  RH WIND       PRES   REMARKS
WALHALLA       FAIR       5   0  78 NE7       30.30R WCI  -7
LANGDON        CLOUDY     7   0  72 CALM      30.21R
CAVALIER       CLOUDY     7   0  72 NE8       30.30R WCI  -6
GRAFTON        CLOUDY     7   0  72 N7        30.31R WCI  -5
CANDO          CLOUDY     5   1  85 E6        30.25R WCI  -6
FORT TOTTEN      N/A      6   1  80 E6        29.95S WCI  -5
ROLLA          FLURRIES   5   0  78 SE5       30.20R WCI  -4
RUGBY          CLOUDY     7   5  92 E9        30.22R WCI  -7
 ***** THE ABOVE OBSERVATIONS ARE NON NWS ARE NOT QUALITY
        CONTROLLED AND MAY MIS-REPORT RAIN FOR SNOW...
$$

 *****  OTHER OBSERVATIONS SOUTHEAST NORTH DAKOTA *****

CITY           SKY/WX    TMP DP  RH WIND       PRES   REMARKS
COOPERSTOWN    NOT AVBL
VALLEY CITY    CLOUDY     7   5  92 NE7       30.22R WCI  -5
OAKES          CLOUDY    10   7  85 NE12      30.20R WCI  -4
GWINNER        CLOUDY    12   9  85 NE8       30.21R WCI   1
SHEYENNE NWR     N/A     10   4  78 NE7       29.95S WCI  -1
BUFFALO          N/A      8   0  69 NE10        N/A  WCI  -6
WYNDMERE         N/A     12   7  79 N6          N/A  WCI   3
 ***** THE ABOVE OBSERVATIONS ARE NON NWS ARE NOT QUALITY
       CONTROLLED AND MAY MIS-REPORT RAIN FOR SNOW...
$$

  *****  WEATHER ACROSS NORTHERN MINNESOTA  *****

CITY           SKY/WX    TMP DP  RH WIND       PRES   REMARKS
FLAG ISLAND    PTCLDY    -2  -9  71 CALM      30.24S
WARROAD        CLOUDY    -8 -13  77 CALM      30.26R
ROSEAU         CLOUDY    -4 -11  71 CALM      30.28R
HALLOCK        MOCLDY     7  -2  66 N8        30.29R WCI  -6
THF RVR FALLS  CLOUDY     7  -6  56 N5        30.25R WCI  -2
6HR MIN TEMP:   3; 6HR MAX TEMP:   7;

HALSTAD          N/A      9   7  91 NE12        N/A  WCI  -6
FOSSTON        CLOUDY     3  -6  66 NE5       30.23R WCI  -6
BAUDETTE       CLOUDY    -8 -17  64 NW6       30.23R WCI -21
6HR MIN TEMP:  -8; 6HR MAX TEMP:  -1;

WASKISH        CLOUDY     0  -9  65 NW3       30.22R
CROOKSTON      PTCLDY     7   0  72 NE6       30.27S WCI  -3
$$
  *****  WEATHER ACROSS CENTRAL AND WEST MINNESOTA  *****

CITY           SKY/WX    TMP DP  RH WIND       PRES   REMARKS
BEMIDJI        CLOUDY     3  -6  67 N6        30.19R WCI  -8
PARK RAPIDS    CLOUDY    10  -6  48 N6        30.16R WCI   0
6HR MIN TEMP:   5; 6HR MAX TEMP:  11;

WADENA         CLOUDY     9  -2  61 N6        30.18R WCI  -1
DETROIT LAKES  CLOUDY    10   3  72 N5        30.20R WCI   2
MOORHEAD       CLOUDY    10   1  67 N12       30.25R WCI  -4
FERGUS FALLS   CLOUDY    12   0  57 N6        30.24R WCI   3
ELBOW LAKE     CLOUDY    13   1  58 N6        30.19R HAZE    WCI   4
6HR MIN TEMP:   9; 6HR MAX TEMP:  14;

MORRIS MN      CLOUDY    12   1  62 CALM      30.18R
STAPLES        CLOUDY     9  -6  52 CALM      30.18R
WHEATON        CLOUDY    12   7  79 CALM      30.23R
$$
  *****  WEATHER ELSEWHERE ACROSS MINNESOTA  *****

CITY           SKY/WX    TMP DP  RH WIND       PRES   REMARKS
DULUTH         PTCLDY     5 -10  50 N7        30.12R WCI  -7
6HR MIN TEMP:   5; 6HR MAX TEMP:  10;

INTRNTL FALLS  CLOUDY    -7 -14  71 CALM      30.21R
6HR MIN TEMP:  -9; 6HR MAX TEMP:   2;

ELY            CLEAR     -2  -8  78 CALM      30.14R
CLOQUET        CLEAR      7 -11  43 NW6       30.14R WCI  -3
BRAINERD       CLOUDY     8  -6  52 NW5       30.17R WCI   0
6HR MIN TEMP:   4; 6HR MAX TEMP:  11;

HIBBING        CLEAR      2 -10  57 N6        30.15R WCI  -9
6HR MIN TEMP:  -1; 6HR MAX TEMP:   6; 6HR PCP: TRACE;

ALEXANDRIA     CLOUDY    12  -2  53 N5        30.16R WCI   4
6HR MIN TEMP:   7; 6HR MAX TEMP:  12;

SAINT CLOUD    CLOUDY    11  -3  53 N7        30.17R WCI   0
6HR MIN TEMP:   7; 6HR MAX TEMP:  13;

MINNEAPOLIS    CLOUDY    12  -2  53 N8        30.17R WCI   0
6HR MIN TEMP:   9; 6HR MAX TEMP:  13;

$$

  *****  WEATHER ACROSS SOUTH DAKOTA  *****

CITY           SKY/WX    TMP DP  RH WIND       PRES   REMARKS
SIOUX FALLS    CLOUDY    16  10  77 E12       30.10R WCI   3
6HR MIN TEMP:  16; 6HR MAX TEMP:  18;

BROOKINGS      CLOUDY    11   6  81 E9        30.10R WCI  -2
WATERTOWN      LGT SNOW  11   4  73 E5        30.11R WCI   3
6HR MIN TEMP:  10; 6HR MAX TEMP:  13; 6HR PCP: TRACE;

HURON          CLOUDY    20  13  74 E10       30.11R WCI   9
6HR MIN TEMP:  20; 6HR MAX TEMP:  25;

SISSETON         N/A     11   6  81 E5        30.19R WCI   3
ABERDEEN       CLOUDY    16  10  77 NE9       30.17R WCI   4
6HR MIN TEMP:  16; 6HR MAX TEMP:  19;

MITCHELL       CLOUDY    22  16  78 E8        30.12R WCI  12
PIERRE         CLOUDY    32  25  75 NE15      30.05R WCI  22
6HR MIN TEMP:  32; 6HR MAX TEMP:  47;

MOBRIDGE       CLOUDY    26  18  71 NE10      30.09R WCI  16
RAPID CITY     PTCLDY    55  23  28 NW24G33   30.01R
6HR MIN TEMP:  55; 6HR MAX TEMP:  63;

$$

  *****  SOME WEATHER IN NEARBY STATES *****

CITY           SKY/WX    TMP DP  RH WIND       PRES   REMARKS
GLASGOW MT     CLOUDY    33  26  75 NE6       30.13S
6HR MIN TEMP:  33; 6HR MAX TEMP:  38;

GREAT FALLS MT CLOUDY    52  26  36 SW16      30.05F
6HR MIN TEMP:  50; 6HR MAX TEMP:  58;

CHEYENNE WY    MOCLDY    47  19  33 NW18G26   30.14R
6HR MIN TEMP:  47; 6HR MAX TEMP:  58;

SCOTTSBLUFF NE PTCLDY    52  27  38 NW12      30.06R
6HR MIN TEMP:  52; 6HR MAX TEMP:  62;

OMAHA NE       PTCLDY    32  24  72 NE14      30.00R WCI  22
6HR MIN TEMP:  32; 6HR MAX TEMP:  37;

DES MOINES IA  CLOUDY    19  11  70 E9        30.09R WCI   8
6HR MIN TEMP:  17; 6HR MAX TEMP:  20; 6HR PCP:  0.01;

DAVENPORT IA   CLOUDY    16   2  54 NW7       30.12R WCI   6
6HR MIN TEMP:  15; 6HR MAX TEMP:  18;

CHICAGO IL     CLOUDY    14   1  56 N12       30.08R WCI   0
6HR MIN TEMP:  13; 6HR MAX TEMP:  18;

EAU CLAIRE WI  CLEAR      7  -4  60 NW5       30.14R WCI  -2
6HR MIN TEMP:   5; 6HR MAX TEMP:  10;

LA CROSSE WI   PTCLDY     8  -3  61 NW7       30.15R WCI  -3
6HR MIN TEMP:   7; 6HR MAX TEMP:  12;

$$

  *****  SOME NATIONAL WEATHER *****

CITY           SKY/WX    TMP DP  RH WIND       PRES   REMARKS
LA GUARDIA NY  MOCLDY    36  17  46 W20G26    29.71R               C1F1C2F2C3F3C4F4C5F5C6F6C7F7C8F8C9F9CaFaCbFbCcFcCdFdCe!


USA.gov is the U.S. government's official web portal to all federal, state and local government web resources and services.